#timestamp,LO_Frequency,Hit,StdDev 
1664229615.2,286046998.5,N
1664229635.0,286047000.8,N
1664229635.9,286047000.8,N
1664229655.8,286046998.1,N
1664229675.6,286047001.1,N
1664229695.4,286046998.6,N
1664229715.3,286047000.7,N
1664229735.1,286047001.2,N
1664229755.9,286046998.7,N
1664229775.7,286046998.1,N
1664229795.5,286046999.5,N
1664229815.4,286046996.6,N
1664229835.2,286046997.7,N
1664229855.0,286046997.9,N
1664229855.9,286046997.9,N
1664229875.8,286046997.7,N
1664229895.6,286046997.6,N
1664229915.5,286046998.0,N
1664229935.3,286046995.6,N
1664229955.1,286046995.8,N
1664229975.9,286046995.5,N
1664229995.7,286046996.0,N
1664230015.5,286046995.0,N
1664230035.4,286046998.0,N
1664230055.2,286046995.0,N
1664230075.1,286046995.7,N
1664230076.0,286046995.7,N
1664230095.8,286046993.7,Y
1664230115.6,286046995.1,P
1664230135.5,286046995.5,P
1664230155.3,286046995.3,P
1664230175.2,286046997.9,N
1664230195.9,286046997.3,N
1664230215.7,286046997.1,N
1664230235.6,286046997.7,N
1664230255.4,286046995.2,Y
1664230275.2,286046999.1,P
1664230295.1,286046998.6,N
1664230296.0,286046998.6,N
1664230315.8,286046998.8,N
1664230335.7,286047000.7,N
1664230355.5,286046998.5,N
1664230375.3,286047000.9,N
1664230395.2,286047002.8,N
1664230415.0,286046998.3,N
1664230415.9,286046998.3,N
1664230435.7,286046998.1,N
1664230455.6,286046998.8,N
1664230475.4,286047000.7,N
1664230495.3,286046998.8,N
1664230515.1,286046998.1,N
1664230516.0,286046998.1,N
1664230535.8,286047000.6,N
1664230555.7,286046998.7,N
1664230575.5,286046999.9,N
1664230595.3,286046998.3,N
1664230615.2,286046998.9,N
1664230635.0,286046998.9,N
1664230635.9,286046998.9,N
1664230655.8,286046998.5,N
1664230675.6,286047001.1,N
1664230695.4,286046998.9,N
1664230715.3,286046998.6,N
1664230735.1,286046998.7,N
1664230755.8,286047000.6,N
1664230775.7,286047002.1,N
1664230795.5,286047002.2,N
1664230815.4,286047001.6,N
1664230835.2,286047002.0,N
1664230855.1,286047001.6,N
1664230856.0,286047001.6,N
1664230875.8,286047000.9,N
1664230895.6,286046998.6,N
1664230915.5,286046998.6,N
1664230935.3,286046998.5,N
1664230955.2,286047000.4,N
1664230975.9,286047000.3,N
1664230995.8,286047000.0,N
1664231015.6,286047000.8,N
1664231035.4,286047000.9,N
1664231055.3,286047001.1,N
1664231075.1,286047000.3,N
1664231095.8,286046999.8,N
1664231115.7,286047002.5,N
1664231135.5,286047004.3,Y
1664231155.4,286047002.0,P
1664231175.2,286047000.8,N
1664231195.1,286046998.3,N
1664231196.0,286046998.3,N
1664231215.8,286046999.3,N
1664231235.6,286047001.2,N
1664231255.5,286047000.2,N
1664231275.3,286046999.8,N
1664231295.2,286047000.0,N
1664231315.9,286047001.0,N
1664231335.7,286047000.5,N
1664231355.6,286047000.5,N
1664231375.4,286047000.4,N
1664231395.2,286047002.8,N
1664231415.1,286046999.7,N
1664231416.0,286046999.7,N
1664231435.8,286046999.7,N
1664231455.7,286046998.9,N
1664231475.5,286046999.3,N
1664231495.3,286047000.8,N
1664231515.2,286047000.5,N
1664231535.0,286046999.8,N
1664231535.9,286046999.8,N
1664231555.8,286047000.0,N
1664231575.6,286046999.9,N
1664231595.4,286047000.2,N
1664231615.3,286047002.2,N
1664231635.1,286047003.7,Y
1664231655.9,286047004.1,P
1664231675.7,286047003.8,N
1664231695.5,286047002.6,N
1664231715.4,286047003.6,N
1664231735.2,286047001.3,N
1664231755.0,286047000.5,N
1664231755.9,286047000.5,N
1664231775.8,286047000.1,N
1664231795.6,286047002.0,N
1664231815.5,286047001.4,N
1664231835.3,286047004.2,N
1664231855.1,286047001.3,N
1664231875.9,286047001.7,N
1664231895.7,286047002.6,N
1664231915.6,286047001.7,N
1664231935.4,286047005.8,Y
1664231955.2,286047003.2,P
1664231975.1,286047004.1,P
1664231976.0,286047004.1,P
1664231995.8,286047004.0,Y
1664232015.6,286047002.8,P
1664232035.5,286047002.6,P
1664232055.3,286046999.8,N
1664232075.2,286047002.6,N
1664232095.0,286047000.2,N
1664232095.9,286047000.2,N
1664232115.7,286047002.3,N
1664232135.6,286047002.3,N
1664232155.4,286047002.6,N
1664232175.3,286047001.4,N
1664232195.1,286047001.8,N
1664232196.0,286047001.8,N
1664232215.8,286047002.7,N
1664232235.7,286047002.8,N
1664232255.5,286047001.6,N
1664232275.4,286047001.6,N
1664232295.2,286047000.1,N
1664232315.0,286047001.2,N
1664232315.9,286047001.2,N
1664232335.8,286047000.8,N
1664232355.6,286047000.9,N
1664232375.4,286046998.3,N
1664232395.3,286046998.7,N
1664232415.1,286046999.1,N
1664232435.9,286046998.7,N
1664232455.7,286047001.0,N
1664232475.5,286047011.9,Y
1664232495.4,286047002.2,P
1664232515.2,286047001.8,P
1664232535.0,286047000.1,N
1664232535.9,286047000.1,N
1664232555.8,286046999.7,N
1664232575.6,286047003.8,Y
1664232595.5,286047003.7,P
1664232615.3,286047000.1,N
1664232635.1,286046999.8,N
1664232655.9,286047001.4,N
1664232675.7,286047002.2,N
1664232695.5,286047002.0,N
1664232715.4,286047001.4,N
1664232735.2,286046999.7,N
1664232755.1,286047000.8,N
1664232756.0,286047000.8,N
1664232775.8,286047000.5,N
1664232795.6,286047001.0,N
1664232815.5,286047001.8,N
1664232835.3,286047002.0,N
1664232855.1,286047000.4,N
1664232875.9,286046999.8,N
1664232895.7,286047002.1,N
1664232915.6,286047002.8,N
1664232935.4,286047002.3,N
1664232955.2,286046999.1,N
1664232975.1,286047000.8,N
1664232976.0,286047000.8,N
1664232995.8,286046999.1,N
1664233015.6,286046996.7,N
1664233035.5,286046996.8,N
1664233055.3,286046997.3,N
1664233075.2,286046998.3,N
1664233095.9,286047002.8,N
1664233115.7,286047004.0,N
1664233135.6,286047003.0,N
1664233155.4,286047001.3,N
1664233175.2,286047003.3,N
1664233195.1,286047001.5,N
1664233196.0,286047001.5,N
